SATCOM 3

导读

SATCOM 3是美国于1979年12月7日08:00发射的通信卫星,隶属于美国国防卫星通信体系,该体系是美国空军运行时间最长的卫星通信系统,旨在为美国国防部及军方提供安全、高数据速率的远程通信服务。作为早期国防通信卫星技术的实践载体,SATCOM 3承载着验证卫星通信稳定性、拓展全球军事指挥链路的使命,为后续第三代DSCS卫星及宽带全球卫星系统的发展积累了关键技术经验,是美国冷战时期卫星通信能力建设的重要组成部分。

基本信息
目录编号:
11635
目录名称:
SATCOM 3
国际标识:
1979-101A
轨道中心:
EARTH
卫星名称:
SATCOM 3
卫星全名:
--
卫星状态:
在轨 (已飞行17021 天)
发射日期:
1979-12-07 UTC
国别 :
美国 (US)
星等 :
--
轨道信息
数据来源 国际轨道数据
星历时间: 2026-07-12T04:32:24+0800
2天前
查看轨道信息
半长轴: 28282.744km
偏心率: 0.480902
轨道倾角: 8.826°
近地点辐角 111.784°
升交点赤经 79.723°
平近点角 22.319°
近地点: 8303.378km
远地点: 35505.836km
周期: 788.936分钟
每日圈数: 1.825242
详细信息
使用方式:
暂无
2D轨道图
3D轨道图
轨道高度分析图
轨道倾角分析图
轨道综合分析图
查看轨道综合分析图